Change the Weather History Date:

Monday, April 7, 2014

  Actual Average (KEGV) Record (KEGV)
Temperature  
Mean Temperature 40 °F -  
Max Temperature 57 °F 54 °F 78 °F (1991)
Min Temperature 25 °F 29 °F 10 °F (1997)
Degree Days  
Heating Degree Days 24    
Moisture  
Dew Point 30 °F    
Average Humidity 72    
Maximum Humidity 98    
Minimum Humidity 27    
Precipitation  
Precipitation 0.00 in - - ()
Sea Level Pressure  
Sea Level Pressure 29.76 in    
Wind  
Wind Speed 1 mph (North)    
Max Wind Speed 14 mph    
Max Gust Speed 18 mph    
Visibility 9 miles    
Events Fog    
Averages and records for this station are not official NWS values.
T = Trace of Precipitation, MM = Missing Value Source: NWS Daily Summary

Daily Weather History Graph

Daily Weather History Graph

Search for Another Location

Airport or City:

Trip Planner

Search our weather history database for the weather conditions in past years. The results will help you decide how hot, cold, wet, or windy it might be!

Date:

Astronomy

Apr. 07, 2014 Rise Set
Actual Time 6:25 AM CDT 7:33 PM CDT
Civil Twilight 5:54 AM CDT 8:04 PM CDT
Nautical Twilight 5:17 AM CDT 8:41 PM CDT
Astronomical Twilight 4:38 AM CDT 9:20 PM CDT
Moon 12:12 PM CDT (4/7) 2:19 AM CDT (4/7)
Length of Visible Light 14h 09m
Length of Day
13h 08m
First Quarter, 53% of the Moon is Illuminated
Apr 7
First Quarter
Apr 15
Full
Apr 22
Last Quarter
Apr 29
New
May 6
First Quarter

Hourly Weather History & Observations

Time (CDT) Temp. Windchill Dew Point Humidity Pressure Visibility Wind Dir Wind Speed Gust Speed Precip Events Conditions
12:15 AM 32.0 °F - 28.6 °F 87% 29.84 in 10.0 mi Calm Calm - N/A   Mostly Cloudy
12:35 AM 32.2 °F - 29.3 °F 89% 29.84 in 7.0 mi Calm Calm - N/A   Overcast
12:55 AM 32.5 °F - 29.8 °F 90% 29.84 in 7.0 mi Calm Calm - N/A   Mostly Cloudy
1:15 AM 32.0 °F - 29.3 °F 90% 29.84 in 10.0 mi Calm Calm - N/A   Scattered Clouds
1:35 AM 31.1 °F - 28.8 °F 91% 29.84 in 10.0 mi Calm Calm - N/A   Scattered Clouds
1:55 AM 30.4 °F - 28.9 °F 94% 29.83 in 7.0 mi Calm Calm - N/A   Clear
2:15 AM 29.3 °F - 27.9 °F 94% 29.83 in 10.0 mi Calm Calm - N/A   Clear
2:35 AM 29.7 °F - 28.0 °F 94% 29.82 in 10.0 mi Calm Calm - N/A   Mostly Cloudy
2:55 AM 29.8 °F - 27.9 °F 92% 29.82 in 10.0 mi Calm Calm - N/A   Mostly Cloudy
3:15 AM 29.3 °F - 28.0 °F 95% 29.82 in 7.0 mi Calm Calm - N/A   Scattered Clouds
3:35 AM 29.1 °F - 27.7 °F 94% 29.81 in 5.0 mi Calm Calm - N/A   Scattered Clouds
3:55 AM 29.1 °F - 28.0 °F 96% 29.81 in 5.0 mi Calm Calm - N/A   Clear
4:15 AM 28.4 °F - 27.3 °F 96% 29.81 in 7.0 mi Calm Calm - N/A   Clear
4:35 AM 28.2 °F - 27.1 °F 96% 29.80 in 7.0 mi Calm Calm - N/A   Clear
4:55 AM 28.2 °F - 27.3 °F 96% 29.80 in 7.0 mi Calm Calm - N/A   Clear
5:15 AM 27.7 °F - 26.8 °F 96% 29.80 in 7.0 mi Calm Calm - N/A   Clear
5:35 AM 26.8 °F - 25.9 °F 96% 29.80 in 7.0 mi Calm Calm - N/A   Clear
5:55 AM 26.2 °F - 25.2 °F 96% 29.80 in 5.0 mi Calm Calm - N/A   Clear
6:15 AM 25.5 °F - 24.8 °F 97% 29.80 in 4.0 mi Calm Calm - N/A   Clear
6:35 AM 25.0 °F - 24.3 °F 97% 29.81 in 5.0 mi Calm Calm - N/A   Clear
6:55 AM 25.2 °F - 24.6 °F 98% 29.81 in 5.0 mi Calm Calm - N/A   Clear
7:15 AM 26.6 °F - 25.9 °F 97% 29.82 in 7.0 mi Calm Calm - N/A   Clear
7:35 AM 28.2 °F - 27.5 °F 97% 29.82 in 7.0 mi Calm Calm - N/A   Clear
7:55 AM 30.0 °F - 28.0 °F 92% 29.82 in 7.0 mi Calm Calm - N/A   Mostly Cloudy
8:15 AM 32.2 °F - 31.6 °F 98% 29.82 in 0.2 mi Calm Calm - N/A Fog Fog
8:35 AM 36.3 °F - 35.6 °F 97% 29.82 in 5.0 mi Calm Calm - N/A   Scattered Clouds
8:55 AM 40.5 °F - 34.0 °F 78% 29.82 in 10.0 mi Calm Calm - N/A   Clear
9:15 AM 43.9 °F - 34.5 °F 70% 29.81 in 10.0 mi Calm Calm - N/A   Clear
9:35 AM 45.9 °F - 34.2 °F 64% 29.81 in 10.0 mi Calm Calm - N/A   Mostly Cloudy
9:55 AM 46.8 °F - 33.8 °F 61% 29.80 in 10.0 mi Calm Calm - N/A   Scattered Clouds
10:15 AM 49.5 °F - 32.9 °F 53% 29.79 in 10.0 mi Calm Calm - N/A   Scattered Clouds
10:55 AM 51.1 °F - 32.5 °F 49% 29.77 in 10.0 mi Calm Calm - N/A   Mostly Cloudy
11:15 AM 51.6 °F - 32.0 °F 47% 29.76 in 10.0 mi Calm Calm - N/A   Mostly Cloudy
11:35 AM 52.0 °F - 31.3 °F 45% 29.75 in 10.0 mi Calm Calm - N/A   Mostly Cloudy
11:55 AM 52.7 °F - 31.6 °F 45% 29.75 in 10.0 mi East 5.8 mph - N/A   Mostly Cloudy
12:15 PM 53.6 °F - 30.2 °F 41% 29.75 in 10.0 mi NE 3.5 mph - N/A   Mostly Cloudy
12:35 PM 52.9 °F - 29.5 °F 41% 29.74 in 10.0 mi Calm Calm - N/A   Scattered Clouds
12:55 PM 54.9 °F - 25.7 °F 32% 29.73 in 10.0 mi SSW 4.6 mph - N/A   Mostly Cloudy
1:15 PM 54.0 °F - 28.9 °F 38% 29.72 in 10.0 mi North 5.8 mph - N/A   Scattered Clouds
1:35 PM 55.6 °F - 29.1 °F 36% 29.72 in 10.0 mi NE 3.5 mph - N/A   Scattered Clouds
1:55 PM 56.3 °F - 28.0 °F 34% 29.71 in 10.0 mi Calm Calm - N/A   Mostly Cloudy
2:15 PM 55.4 °F - 28.6 °F 36% 29.70 in 10.0 mi NNE 3.5 mph - N/A   Scattered Clouds
2:35 PM 55.8 °F - 27.3 °F 34% 29.69 in 10.0 mi Calm Calm - N/A   Scattered Clouds
2:55 PM 56.8 °F - 23.9 °F 28% 29.69 in 10.0 mi SW 3.5 mph - N/A   Mostly Cloudy
3:15 PM 56.7 °F - 22.5 °F 27% 29.68 in 10.0 mi SW 3.5 mph - N/A   Mostly Cloudy
3:35 PM 54.9 °F - 23.9 °F 30% 29.68 in 10.0 mi Calm Calm - N/A   Overcast
4:15 PM 54.3 °F - 24.8 °F 32% 29.68 in 10.0 mi NNW 4.6 mph - N/A   Overcast
4:35 PM 53.1 °F - 26.6 °F 36% 29.68 in 10.0 mi NW 5.8 mph - N/A   Overcast
4:55 PM 50.5 °F - 29.1 °F 44% 29.69 in 10.0 mi North 12.7 mph - N/A   Overcast
5:15 PM 49.3 °F - 29.7 °F 47% 29.69 in 10.0 mi North 9.2 mph - N/A   Overcast
5:35 PM 47.3 °F - 29.8 °F 51% 29.70 in 10.0 mi North 12.7 mph 18.4 mph N/A   Overcast
5:55 PM 44.8 °F 38.7 °F 30.0 °F 56% 29.71 in 10.0 mi North 12.7 mph 17.3 mph N/A   Overcast
6:15 PM 44.1 °F 38.6 °F 30.2 °F 58% 29.72 in 10.0 mi North 10.4 mph 18.4 mph N/A   Overcast
6:35 PM 43.0 °F 36.0 °F 30.2 °F 61% 29.71 in 10.0 mi North 13.8 mph 18.4 mph N/A   Overcast
6:55 PM 42.3 °F 36.3 °F 30.2 °F 62% 29.72 in 10.0 mi North 10.4 mph 17.3 mph N/A   Overcast
7:15 PM 41.5 °F 35.9 °F 30.6 °F 65% 29.72 in 10.0 mi North 9.2 mph - N/A   Overcast
7:35 PM 40.6 °F 34.3 °F 31.5 °F 70% 29.72 in 10.0 mi North 10.4 mph - N/A   Scattered Clouds
7:55 PM 39.7 °F 35.6 °F 32.2 °F 74% 29.73 in 10.0 mi North 5.8 mph - N/A   Clear
8:15 PM 39.2 °F 37.0 °F 32.5 °F 77% 29.73 in 10.0 mi North 3.5 mph - N/A   Mostly Cloudy
8:35 PM 38.5 °F 35.0 °F 33.1 °F 81% 29.73 in 10.0 mi North 4.6 mph - N/A   Scattered Clouds
8:55 PM 37.9 °F 35.5 °F 33.3 °F 83% 29.73 in 10.0 mi North 3.5 mph - N/A   Scattered Clouds
9:15 PM 37.6 °F 35.1 °F 33.1 °F 84% 29.73 in 10.0 mi North 3.5 mph - N/A   Overcast
9:35 PM 37.6 °F - 33.1 °F 84% 29.73 in 10.0 mi Calm Calm - N/A   Overcast
9:55 PM 37.4 °F - 32.9 °F 84% 29.72 in 10.0 mi Calm Calm - N/A   Overcast
10:15 PM 36.7 °F - 32.4 °F 84% 29.72 in 10.0 mi Calm Calm - N/A   Overcast
10:35 PM 35.1 °F 32.2 °F 32.2 °F 89% 29.72 in 10.0 mi NW 3.5 mph - N/A   Overcast
10:55 PM 35.1 °F - 32.0 °F 89% 29.71 in 10.0 mi Calm Calm - N/A   Mostly Cloudy
11:15 PM 36.1 °F 33.5 °F 33.6 °F 91% 29.71 in 10.0 mi NW 3.5 mph - N/A   Overcast
11:35 PM 37.4 °F - 35.1 °F 91% 29.71 in 10.0 mi Calm Calm - N/A   Overcast
11:55 PM 37.8 °F - 35.4 °F 91% 29.71 in 10.0 mi Calm Calm - N/A   Overcast